Terminal Aerodrome Forecast
Issued by NWS

Home | Current Version | Previous Version | Text Only | Print | Product List | Glossary On
Versions: 1 2 3 4 5 6 7 8 9 10 11 12 13 14 15 16 17 18 19 20 21 22 23 24 25 26 27 28 29 30 31 32 33 34 35 36 37 38 39 40 41 42 43 44 45 46 47 48 49 50
227
FTUS41 KCTP 140324 AAB
TAFJST
TAF AMD
KJST 140324Z 1403/1424 28013KT 4SM -SN BKN021 OVC040
     FM140600 28012KT P6SM OVC035
     FM141300 27005KT P6SM OVC050=

USA.gov is the U.S. government's official web portal to all federal, state and local government web resources and services.